Preview of NWS' New Version of Forecast
This preview is not operational and should not be used for support decisions.

Regional Weather Roundup (RWR)

Issued by Gray - Portland, ME (GYX)

                            
027 
ASUS41 KGYX 202110
RWRGYX
WEATHER ROUNDUP FOR MAINE AND NEW HAMPSHIRE
NATIONAL WEATHER SERVICE GRAY ME
500 PM EDT FRI APR 20 2018

MEZ002-005-006-010-012-015-018-020-021-024-026-027-029-202200-
MAINE
  
CITY           SKY/WX    TMP DP  RH WIND       PRES   REMARKS
PORTLAND       FAIR      50  29  44 NW25G31   30.04R                  
SANFORD        CLOUDY    47  28  47 NW17G25   30.07R                  
BAR HARBOR     CLOUDY    45  36  70 NE5       29.96R                  
WISCASSET      CLOUDY    48  29  47 W8G21     30.01R                  
ROCKLAND       CLOUDY    49  28  44 VRB6G20   29.98R                  
FRYEBURG       FAIR      45  31  58 W13G23    30.07R                  
LEWISTONAUBURN CLOUDY    48  29  47 NW18G28   30.03R                  
AUGUSTA        LGT RAIN  46  30  53 NW16G23   30.00R                  
WATERVILLE     CLOUDY    48  28  46 N10G21    29.97R                  
BANGOR         PTSUNNY   47  32  56 NW10      29.96R                  
GREENVILLE       N/A     40  26  57 NW14      29.94R                  
MILLINOCKET    CLOUDY    45  31  58 NW10      29.97R                  
HOULTON        PTSUNNY   43  29  57 NW10G21   29.92R                  
PRESQUE ISLE   CLOUDY    41  33  73 E3        29.94R                  
FRENCHVILLE    PTSUNNY   43  23  45 NW23      29.92R                  
CARIBOU        CLOUDY    43  31  62 N7        29.92R                  
$$

NHZ002-005-008-009-011-012-014-202200-
NEW HAMPSHIRE
  
CITY           SKY/WX    TMP DP  RH WIND       PRES   REMARKS
PORTSMOUTH     MOSUNNY   49  27  41 NW23G30   30.06R                  
ROCHESTER      PTSUNNY   47  28  47 NW20G28   30.07R                  
NASHUA         PTSUNNY   47  27  45 NW16G24   30.12R                  
MANCHESTER     PTSUNNY   50  25  37 NW20G29   30.11R                  
CONCORD        PTSUNNY   45  27  49 NW21G28   30.12R                  
LACONIA        CLOUDY    41  28  60 NW16G22   30.12R                  
PLYMOUTH       CLOUDY    38  29  68 W10       30.14R                  
BERLIN         CLOUDY    38  30  73 W9G21     30.06R                  
WHITEFIELD     CLOUDY    37  29  72 W9        30.11R                  
JAFFREY        CLOUDY    44  27  51 VRB6G20   30.12R                  
KEENE          CLOUDY    45  25  45 N15G23    30.15R                  
LEBANON        CLOUDY    41  25  53 N9G21     30.17R                  
MT WASHINGTON  SNOWSHWR  16  16 100 NW51G63     N/A  VSB 0   WCI  -9  
$$

VTZ005-007-008-202200-
VERMONT
  
CITY           SKY/WX    TMP DP  RH WIND       PRES   REMARKS
ST JOHNSBURY     N/A     39  29  67 MISG      30.12R                  
MONTPELIER     CLOUDY    35  28  75 W12       30.19R                  
BURLINGTON     CLOUDY    41  27  57 NW13G20   30.20R                  
$$

MAZ007-012-024-CTZ003-RIZ002-NYZ038-NYZ072-202200-
SOUTHERN NEW ENGLAND AND NY
  
CITY           SKY/WX    TMP DP  RH WIND       PRES   REMARKS
BOSTON         FAIR      52  26  36 NW22G35   30.08R                  
WORCESTER      CLOUDY    46  25  43 NW15G24   30.10R                  
NANTUCKET      PTSUNNY   48  31  51 N9        30.08R                  
PROVIDENCE     FAIR      55  27  34 N12G22    30.09R                  
HARTFORD       FAIR      50  25  37 NW18G26   30.16R                  
ALBANY         PTSUNNY   46  25  43 W18G28    30.24R                  
NEW YORK CITY  FAIR      50  25  37 NW22G31   30.20R                  
$$

ANZ081-ANZ082-ANZ150-NHZ014-MEZ023>029-202200-
COASTAL MARINE OBSERVATIONS
  
STATION/POSITION TIME  TEMP    WIND        PRES    WAVE
                       AIR SEA DIR/SP/G            HT/PER
                 (UTC) (F)     (DEG/KT/KT) (MB)    (FT/S)
MOUNT DESERT ROC 2100   42     330/  6/  8 1015.0R
MATINICUS ROCK   2100   43     240/  9/  9 1014.8R
ISLE OF SHOALS   2100   47     310/ 26/ 28 1017.3R
JEFFREYS LEDGE   2036      41                N/A     3/ 4
CASHES LEDGE BUO 2050   43 41              1015.5R   3/10
$$

.............KEY..............
   WCI - WIND CHILL
   TC  - TEMPERATURE IN CELSIUS
   VSB - VISIBILITY IN MILES
   HX  - HEAT INDEX
   FAIR- INDICATES FEW OR NO CLOUDS BELOW 12,000 FT, WITH NO 
         SIGNIFICANT WEATHER AND/OR OBSTRUCTIONS TO VISIBILITY.